Location: Unspecified
(0.0000°N, 0.0000°E)
Time: 16:17:03
(UTC+00:00)

Tiros 1 despin weight - Pass Details

Date: 24 November 2019
Orbit: 594 x 642 km, 48.2° (Epoch: 12 December)

Event Time Altitude Azimuth Distance (km) Brightness Sun altitude
Rises 19:08:00 0° 339° (NNW) 2,863 ? -19.0°
Reaches altitude 10° 19:10:32 10° 351° (N) 1,970 ? -19.6°
Enters shadow 19:11:47 17° 1° (N) 1,579 ? -19.9°
Maximum altitude 19:14:28 29° 51° (NE) 1,143 - -20.5°
Drops below altitude 10° 19:18:28 10° 111° (ESE) 2,003 - -21.4°
Sets 19:21:02 0° 122° (ESE) 2,920 - -22.0°
